Millville, NJ

10:28 AM EST on December 07, 2016 (GMT -0500)
Millville Municipal

Weather History for KMIV - September, 2013

Change the Weather History Date:

Sunday, September 1, 2013

  Actual Average Record
Temperature  
Mean Temperature 80 °F -  
Max Temperature 86 °F 81 °F 97 °F (1953)
Min Temperature 73 °F 62 °F 48 °F (1948)
Cooling Degree Days 14    
Growing Degree Days 30 (Base 50)    
Moisture  
Dew Point 73 °F    
Average Humidity 85    
Maximum Humidity 100    
Minimum Humidity 65    
Precipitation  
Precipitation 0.18 in - - ()
Sea Level Pressure  
Sea Level Pressure 29.83 in    
Wind  
Wind Speed 4 mph (South)    
Max Wind Speed 10 mph    
Max Gust Speed 18 mph    
Visibility 9 miles    
Events Rain , Thunderstorm    
Averages and records for this station are not official NWS values.
T = Trace of Precipitation, MM = Missing Value Source: NWS Daily Summary

Daily Weather History Graph

Daily Weather History Graph

Search for Another Location

Airport or City:

Trip Planner

Search our weather history database for the weather conditions in past years. The results will help you decide how hot, cold, wet, or windy it might be!

Date:

Astronomy

Sep. 01, 2013 Rise Set
Actual Time 6:28 AM EDT 7:30 PM EDT
Civil Twilight 6:01 AM EDT 7:58 PM EDT
Nautical Twilight 5:28 AM EDT 8:30 PM EDT
Astronomical Twilight 4:54 AM EDT 9:04 PM EDT
Moon 2:49 AM EDT (9/1) 5:06 PM EDT (9/1)
Length of Visible Light 13h 56m
Length of Day
13h 01m
Waning Crescent, 14% of the Moon is Illuminated
Sep 1
Waning Crescent
Sep 5
New
Sep 12
First Quarter
Sep 19
Full
Sep 26
Last Quarter

Hourly Weather History & Observations

Time (EDT) Temp. Heat Index Dew Point Humidity Pressure Visibility Wind Dir Wind Speed Gust Speed Precip Events Conditions
12:28 AM 75.2 °F - 71.6 °F 89% 29.86 in 10.0 mi Variable 3.5 mph - N/A Thunderstorm Mostly Cloudy
12:44 AM 75.2 °F - 71.6 °F 89% 29.86 in 2.0 mi SSW 10.4 mph 17.3 mph 0.12 in Rain Heavy Rain
12:51 AM 73.4 °F - 71.6 °F 94% 29.85 in 1.0 mi Variable 5.8 mph 17.3 mph 0.17 in Rain Heavy Rain
12:54 AM 75.0 °F - 72.0 °F 90% 29.85 in 2.0 mi South 4.6 mph - 0.17 in Rain Light Rain
1:02 AM 75.2 °F - 73.4 °F 94% 29.85 in 10.0 mi South 3.5 mph - 0.01 in Rain Light Rain
1:54 AM 73.9 °F - 73.0 °F 97% 29.84 in 10.0 mi Calm Calm - 0.01 in   Clear
2:54 AM 73.9 °F - 73.0 °F 97% 29.82 in 10.0 mi Calm Calm - N/A   Clear
3:54 AM 75.0 °F - 73.0 °F 94% 29.81 in 10.0 mi Calm Calm - N/A   Mostly Cloudy
4:54 AM 75.0 °F - 73.9 °F 96% 29.82 in 10.0 mi Calm Calm - N/A   Overcast
5:54 AM 75.0 °F - 73.9 °F 96% 29.83 in 10.0 mi Calm Calm - N/A   Overcast
6:09 AM 75.2 °F - 73.4 °F 94% 29.84 in 10.0 mi Calm Calm - N/A   Overcast
6:54 AM 75.0 °F - 73.9 °F 96% 29.85 in 8.0 mi Calm Calm - N/A   Overcast
7:24 AM 75.2 °F - 73.4 °F 94% 29.86 in 8.0 mi Calm Calm - N/A   Mostly Cloudy
7:43 AM 75.2 °F - 73.4 °F 94% 29.86 in 8.0 mi Calm Calm - N/A   Scattered Clouds
7:54 AM 75.9 °F - 73.9 °F 94% 29.85 in 8.0 mi Calm Calm - N/A   Partly Cloudy
8:39 AM 75.2 °F - 73.4 °F 94% 29.86 in 9.0 mi Variable 3.5 mph - N/A   Partly Cloudy
8:54 AM 77.0 °F - 73.9 °F 90% 29.86 in 9.0 mi WSW 3.5 mph - N/A   Partly Cloudy
9:54 AM 79.0 °F - 73.9 °F 84% 29.87 in 10.0 mi SW 3.5 mph - N/A   Partly Cloudy
10:31 AM 80.6 °F 85.4 °F 73.4 °F 79% 29.87 in 10.0 mi Variable 5.8 mph - N/A   Mostly Cloudy
10:44 AM 80.6 °F 85.4 °F 73.4 °F 79% 29.86 in 10.0 mi South 4.6 mph - N/A   Scattered Clouds
10:54 AM 81.0 °F 85.8 °F 73.0 °F 77% 29.86 in 10.0 mi Variable 4.6 mph - N/A   Scattered Clouds
11:54 AM 84.0 °F 90.2 °F 73.0 °F 69% 29.85 in 10.0 mi SW 5.8 mph - N/A   Mostly Cloudy
12:43 PM 84.2 °F 90.9 °F 73.4 °F 70% 29.84 in 10.0 mi Variable 5.8 mph - N/A   Overcast
12:51 PM 84.2 °F 90.9 °F 73.4 °F 70% 29.84 in 10.0 mi Variable 3.5 mph - N/A   Overcast
12:54 PM 84.0 °F 90.2 °F 73.0 °F 69% 29.83 in 10.0 mi Variable 4.6 mph - N/A   Overcast
1:54 PM 84.9 °F 90.7 °F 72.0 °F 65% 29.83 in 10.0 mi SSE 6.9 mph - N/A   Scattered Clouds
2:54 PM 86.0 °F 93.8 °F 73.9 °F 67% 29.82 in 10.0 mi Variable 4.6 mph - N/A   Clear
3:11 PM 84.2 °F 90.9 °F 73.4 °F 70% 29.82 in 10.0 mi South 8.1 mph - N/A   Mostly Cloudy
3:37 PM 82.4 °F 88.2 °F 73.4 °F 74% 29.81 in 10.0 mi Variable 5.8 mph 18.4 mph N/A   Scattered Clouds
3:54 PM 84.0 °F 90.2 °F 73.0 °F 69% 29.80 in 10.0 mi Variable 6.9 mph - N/A   Clear
4:54 PM 84.0 °F 89.6 °F 72.0 °F 67% 29.79 in 10.0 mi Variable 4.6 mph - N/A   Clear
5:54 PM 82.0 °F 87.9 °F 73.9 °F 76% 29.79 in 10.0 mi SSE 5.8 mph - N/A   Clear
6:54 PM 80.1 °F 84.5 °F 73.9 °F 81% 29.79 in 10.0 mi SSE 4.6 mph - N/A   Clear
7:54 PM 78.1 °F - 73.9 °F 87% 29.80 in 9.0 mi SSE 5.8 mph - N/A   Partly Cloudy
8:54 PM 77.0 °F - 75.0 °F 94% 29.81 in 8.0 mi Calm Calm - N/A   Clear
9:54 PM 77.0 °F - 75.0 °F 94% 29.82 in 7.0 mi Calm Calm - N/A   Clear
10:54 PM 75.9 °F - 75.0 °F 97% 29.81 in 6.0 mi Calm Calm - N/A   Clear
11:41 PM 75.2 °F - 75.2 °F 100% 29.81 in 5.0 mi SSE 4.6 mph - N/A   Partly Cloudy
11:54 PM 75.9 °F - 75.0 °F 97% 29.81 in 5.0 mi Calm Calm - N/A   Partly Cloudy